Nausori, Fiji

2:36 AM +13 on December 19, 2017 (GMT +1300)
Nausori International

Weather History for NFNA - January, 2006

Change the Weather History Date:

Friday, January 13, 2006

  Actual Average Record
Temperature  
Mean Temperature 80 °F -  
Max Temperature 84 °F 87 °F - ()
Min Temperature 73 °F 75 °F - ()
Cooling Degree Days 14    
Growing Degree Days 30 (Base 50)    
Moisture  
Dew Point 74 °F    
Average Humidity 83    
Maximum Humidity 100    
Minimum Humidity 64    
Precipitation  
Precipitation 0.08 in 0.40 in - ()
Sea Level Pressure  
Sea Level Pressure 29.65 in    
Wind  
Wind Speed 6 mph ()    
Max Wind Speed 12 mph    
Max Gust Speed -    
Visibility 14.0 miles    
Events Rain    
T = Trace of Precipitation, MM = Missing Value Source: Averaged Metar Reports

Daily Weather History Graph

Daily Weather History Graph

Search for Another Location

Airport or City:

Trip Planner

Search our weather history database for the weather conditions in past years. The results will help you decide how hot, cold, wet, or windy it might be!

Date:

Astronomy

Jan. 13, 2006 Rise Set
Actual Time 5:40 AM +12 6:47 PM +12
Civil Twilight 5:16 AM +12 7:11 PM +12
Nautical Twilight 4:48 AM +12 7:39 PM +12
Astronomical Twilight 4:19 AM +12 8:08 PM +12
Moon 6:01 PM +12 (1/13) 4:09 AM +12 (1/13)
Length of Visible Light 13h 54m
Length of Day
13h 06m
Waxing Gibbous, 98% of the Moon is Illuminated
Jan 13
Waxing Gibbous
Jan 14
Full
Jan 23
Last Quarter
Jan 30
New
Feb 5
First Quarter

Hourly Weather History & Observations

Time (+12) Temp. Heat Index Dew Point Humidity Pressure Visibility Wind Dir Wind Speed Gust Speed Precip Events Conditions
12:00 AM 79 °F - 75 °F 83% 29.67 in 12 mi SSE 9.2 mph - -   Partly Cloudy
12:00 AM 78.8 °F - 75.2 °F 89% 29.65 in 24.9 mi SSE 9.2 mph - N/A   Mostly Cloudy
1:00 AM 78.8 °F - 73.4 °F 83% 29.65 in 24.9 mi SSE 4.6 mph - N/A   Scattered Clouds
2:00 AM 78.8 °F - 73.4 °F 83% 29.62 in 24.9 mi SSE 5.8 mph - N/A   Mostly Cloudy
3:00 AM 77 °F - 73 °F 83% 29.63 in 12 mi Calm Calm - -   Partly Cloudy
3:00 AM 77.0 °F - 73.4 °F 89% 29.62 in 24.9 mi Calm Calm - N/A   Mostly Cloudy
4:00 AM 77.0 °F - 73.4 °F 89% 29.62 in 24.9 mi SSE 9.2 mph - N/A   Scattered Clouds
5:00 AM 77.0 °F - 73.4 °F 89% 29.65 in 31.1 mi Calm Calm - N/A   Partly Cloudy
6:00 AM 77 °F - 73 °F 84% 29.66 in 31 mi Calm Calm - -   Partly Cloudy
6:00 AM 77.0 °F - 73.4 °F 89% 29.65 in 31.1 mi Calm Calm - N/A   Scattered Clouds
7:00 AM 78.8 °F - 75.2 °F 89% 29.65 in 31.1 mi Calm Calm - N/A   Mostly Cloudy
8:00 AM 82.4 °F 90.9 °F 77.0 °F 84% 29.65 in 31.1 mi SSE 11.5 mph - N/A   Mostly Cloudy
9:00 AM 83 °F - 73 °F 64% 29.66 in 31 mi SE 8.1 mph - -   Partly Cloudy
9:00 AM 82.4 °F 88.2 °F 73.4 °F 74% 29.65 in 31.1 mi SE 8.1 mph - N/A   Mostly Cloudy
10:00 AM 84.2 °F 89.6 °F 71.6 °F 66% 29.65 in 31.1 mi ESE 9.2 mph - N/A   Mostly Cloudy
11:00 AM 82.4 °F 87.2 °F 71.6 °F 70% 29.65 in 24.9 mi ESE 9.2 mph - N/A   Scattered Clouds
12:00 PM 83 °F - 73 °F 64% 29.65 in 12 mi ESE 11.5 mph - -   Mostly Cloudy
12:00 PM 82.4 °F 88.2 °F 73.4 °F 74% 29.62 in 24.9 mi ESE 11.5 mph - N/A   Mostly Cloudy
1:00 PM 82.4 °F 88.2 °F 73.4 °F 74% 29.62 in 24.9 mi East 11.5 mph - N/A   Mostly Cloudy
2:00 PM 82.4 °F 89.5 °F 75.2 °F 79% 29.62 in 12.4 mi ESE 11.5 mph - N/A Rain Light Rain Showers
3:00 PM 78 °F - 75 °F 88% 29.63 in 12 mi SSE 8.1 mph - - Rain Light Rain Showers
3:00 PM 78.8 °F - 75.2 °F 89% 29.62 in 18.6 mi South 8.1 mph - N/A   Mostly Cloudy
4:00 PM 80.6 °F 85.4 °F 73.4 °F 79% 29.62 in 24.9 mi SSE 9.2 mph - N/A   Mostly Cloudy
5:00 PM 80.6 °F 85.4 °F 73.4 °F 79% 29.62 in 24.9 mi SSE 3.5 mph - N/A   Mostly Cloudy
6:00 PM 76 °F - 73 °F 87% 29.65 in 12 mi SSE 11.5 mph - - Rain Light Rain Showers
6:00 PM 77.0 °F - 73.4 °F 89% 29.65 in 18.6 mi SSE 11.5 mph - N/A Rain Light Rain Showers
7:00 PM 77.0 °F - 71.6 °F 83% 29.65 in 24.9 mi Calm Calm - N/A   Mostly Cloudy
8:00 PM 75.2 °F - 73.4 °F 94% 29.65 in 24.9 mi Calm Calm - N/A   Mostly Cloudy
9:00 PM 75 °F - 73 °F 93% 29.69 in 12 mi West 5.8 mph - - Rain Light Rain Showers
9:00 PM 75.2 °F - 73.4 °F 94% 29.68 in 18.6 mi West 5.8 mph - N/A Rain Light Rain Showers
10:00 PM 75.2 °F - 73.4 °F 94% 29.68 in 24.9 mi WNW 5.8 mph - N/A   Mostly Cloudy
11:00 PM 73.4 °F - 73.4 °F 100% 29.68 in 31.1 mi WNW 6.9 mph - N/A   Scattered Clouds